When you browse on this site, cookies collect data to enhance your experience and personalize the content and advertising you see.
Visit our Privacy Policy to learn more. By continuing to use the site, you agree to this use of cookies and data.
  • în România
  • Lista ţărilor
  • Pe 7 zile
  • Temperatura apei
  • Hartă satelitară
  • Meteo pe hartă
  • Widget-uri
  • user-avatar
    Intrare

    Meteo pe oră la Beclean

    Astăzi, 25 Aprilie, Joi

    Timp Temperatura Precipitaţii Vânt Presiune Umiditate
    00:00 +10°C° 0 mm 2 m/s 735 mmHg 76%
    01:00 +9°C° 0 mm 2 m/s 735 mmHg 77%
    02:00 +9°C° 0 mm 1 m/s 734 mmHg 81%
    03:00 +9°C° 0 mm 1 m/s 734 mmHg 81%
    04:00 +9°C° 0 mm 1 m/s 734 mmHg 82%
    05:00 +9°C° 0 mm 1 m/s 734 mmHg 82%
    06:00 +11°C° 0 mm 1 m/s 734 mmHg 75%
    07:00 +12°C° 0 mm 1 m/s 734 mmHg 69%
    08:00 +15°C° 0 mm 2 m/s 735 mmHg 62%
    09:00 +16°C° 0 mm 2 m/s 735 mmHg 59%
    10:00 +18°C° 0 mm 2 m/s 734 mmHg 57%
    11:00 +19°C° 0 mm 3 m/s 734 mmHg 55%
    12:00 +20°C° 0 mm 3 m/s 734 mmHg 53%
    13:00 +21°C° 0 mm 2 m/s 734 mmHg 52%
    14:00 +23°C° 0 mm 2 m/s 734 mmHg 51%
    15:00 +23°C° 0.3 mm 2 m/s 734 mmHg 53%
    16:00 +23°C° 0.3 mm 2 m/s 734 mmHg 55%
    17:00 +23°C° 0.3 mm 2 m/s 733 mmHg 58%
    18:00 +20°C° 0.2 mm 2 m/s 733 mmHg 64%
    19:00 +19°C° 0.2 mm 1 m/s 733 mmHg 70%
    20:00 +18°C° 0.2 mm 1 m/s 733 mmHg 75%
    21:00 +16°C° 0 mm 1 m/s 733 mmHg 78%
    22:00 +15°C° 0 mm 1 m/s 733 mmHg 81%
    23:00 +14°C° 0 mm 1 m/s 733 mmHg 84%

    Mâine, 26 Aprilie, Vineri

    Timp Temperatura Precipitaţii Vânt Presiune Umiditate
    00:00 +14°C° 0 mm 1 m/s 733 mmHg 86%
    01:00 +13°C° 0 mm 1 m/s 733 mmHg 87%
    02:00 +13°C° 0 mm 1 m/s 733 mmHg 89%
    03:00 +12°C° 0 mm 1 m/s 733 mmHg 89%
    04:00 +12°C° 0 mm 1 m/s 733 mmHg 90%
    05:00 +12°C° 0 mm 1 m/s 733 mmHg 91%
    06:00 +13°C° 0 mm 1 m/s 733 mmHg 86%
    07:00 +15°C° 0 mm 1 m/s 733 mmHg 81%
    08:00 +16°C° 0 mm 1 m/s 733 mmHg 75%
    09:00 +18°C° 0 mm 2 m/s 733 mmHg 70%
    10:00 +20°C° 0 mm 2 m/s 732 mmHg 64%
    11:00 +21°C° 0 mm 3 m/s 732 mmHg 59%
    12:00 +22°C° 0 mm 3 m/s 732 mmHg 55%
    13:00 +24°C° 0 mm 3 m/s 732 mmHg 51%
    14:00 +25°C° 0 mm 2 m/s 731 mmHg 48%
    15:00 +25°C° 0 mm 2 m/s 731 mmHg 48%
    16:00 +25°C° 0 mm 2 m/s 731 mmHg 49%
    17:00 +25°C° 0 mm 2 m/s 730 mmHg 50%
    18:00 +23°C° 0.1 mm 2 m/s 730 mmHg 55%
    19:00 +20°C° 0.1 mm 2 m/s 730 mmHg 61%
    20:00 +18°C° 0.1 mm 2 m/s 730 mmHg 67%
    21:00 +17°C° 0.5 mm 2 m/s 730 mmHg 70%
    22:00 +16°C° 0.5 mm 1 m/s 730 mmHg 73%
    23:00 +15°C° 0.5 mm 1 m/s 730 mmHg 76%

    Poimâine, 27 Aprilie, Sâmbătă

    Timp Temperatura Precipitaţii Vânt Presiune Umiditate
    00:00 +15°C° 0 mm 1 m/s 729 mmHg 76%
    01:00 +14°C° 0 mm 1 m/s 729 mmHg 76%
    02:00 +14°C° 0 mm 1 m/s 729 mmHg 77%
    03:00 +13°C° 0 mm 1 m/s 728 mmHg 77%
    04:00 +13°C° 0 mm 1 m/s 728 mmHg 77%
    05:00 +13°C° 0 mm 1 m/s 728 mmHg 77%
    06:00 +14°C° 0 mm 1 m/s 728 mmHg 73%
    07:00 +16°C° 0 mm 1 m/s 728 mmHg 69%
    08:00 +18°C° 0 mm 1 m/s 728 mmHg 65%
    09:00 +20°C° 0 mm 1 m/s 728 mmHg 62%
    10:00 +20°C° 0 mm 2 m/s 728 mmHg 58%
    11:00 +21°C° 0 mm 2 m/s 728 mmHg 55%
    12:00 +23°C° 0 mm 2 m/s 728 mmHg 55%
    13:00 +23°C° 0 mm 2 m/s 727 mmHg 55%
    14:00 +22°C° 0 mm 3 m/s 727 mmHg 55%
    15:00 +21°C° 0.1 mm 3 m/s 727 mmHg 63%
    16:00 +20°C° 0.1 mm 4 m/s 726 mmHg 70%
    17:00 +19°C° 0.1 mm 5 m/s 726 mmHg 77%
    18:00 +17°C° 0.5 mm 4 m/s 726 mmHg 83%
    19:00 +15°C° 0.5 mm 4 m/s 726 mmHg 89%
    20:00 +13°C° 0.5 mm 3 m/s 726 mmHg 95%
    21:00 +13°C° 0.8 mm 3 m/s 726 mmHg 95%
    22:00 +12°C° 0.8 mm 3 m/s 726 mmHg 95%
    23:00 +12°C° 0.8 mm 3 m/s 726 mmHg 95%

    28 Aprilie, Duminică

    Timp Temperatura Precipitaţii Vânt Presiune Umiditate
    00:00 +12°C° 1.1 mm 3 m/s 726 mmHg 95%
    01:00 +11°C° 1.1 mm 3 m/s 726 mmHg 95%
    02:00 +11°C° 1.1 mm 3 m/s 725 mmHg 95%
    03:00 +11°C° 2.1 mm 3 m/s 725 mmHg 95%
    04:00 +10°C° 2.1 mm 4 m/s 725 mmHg 95%
    05:00 +10°C° 2.1 mm 4 m/s 725 mmHg 95%
    06:00 +10°C° 2.2 mm 3 m/s 725 mmHg 95%
    07:00 +10°C° 2.2 mm 3 m/s 725 mmHg 95%
    08:00 +10°C° 2.2 mm 2 m/s 725 mmHg 95%
    09:00 +10°C° 1.4 mm 3 m/s 725 mmHg 95%
    10:00 +10°C° 1.4 mm 3 m/s 725 mmHg 95%
    11:00 +10°C° 1.4 mm 3 m/s 726 mmHg 95%
    12:00 +10°C° 0.4 mm 4 m/s 726 mmHg 94%
    13:00 +10°C° 0.4 mm 4 m/s 726 mmHg 93%
    14:00 +9°C° 0.4 mm 5 m/s 726 mmHg 92%
    15:00 +10°C° 0.3 mm 4 m/s 726 mmHg 92%
    16:00 +10°C° 0.3 mm 4 m/s 726 mmHg 91%
    17:00 +10°C° 0.3 mm 4 m/s 726 mmHg 90%
    18:00 +8°C° 0.2 mm 4 m/s 726 mmHg 92%
    19:00 +9°C° 0.2 mm 3 m/s 726 mmHg 93%
    20:00 +9°C° 0.2 mm 3 m/s 727 mmHg 94%
    21:00 +8°C° 0.1 mm 3 m/s 727 mmHg 95%
    22:00 +8°C° 0.1 mm 3 m/s 727 mmHg 95%
    23:00 +8°C° 0.1 mm 3 m/s 727 mmHg 96%

    29 Aprilie, Luni

    Timp Temperatura Precipitaţii Vânt Presiune Umiditate
    00:00 +8°C° 0.2 mm 3 m/s 727 mmHg 96%
    01:00 +8°C° 0.2 mm 3 m/s 727 mmHg 96%
    02:00 +8°C° 0.2 mm 3 m/s 727 mmHg 96%
    03:00 +8°C° 0.3 mm 3 m/s 727 mmHg 96%
    04:00 +8°C° 0.3 mm 3 m/s 727 mmHg 96%
    05:00 +8°C° 0.3 mm 3 m/s 727 mmHg 96%
    06:00 +9°C° 0.3 mm 3 m/s 726 mmHg 95%
    07:00 +9°C° 0.3 mm 3 m/s 726 mmHg 94%
    08:00 +9°C° 0.3 mm 3 m/s 726 mmHg 93%
    09:00 +10°C° 0.7 mm 3 m/s 726 mmHg 92%
    10:00 +10°C° 0.7 mm 3 m/s 726 mmHg 91%
    11:00 +10°C° 0.7 mm 3 m/s 726 mmHg 90%
    12:00 +12°C° 0.6 mm 2 m/s 726 mmHg 88%
    13:00 +12°C° 0.6 mm 2 m/s 726 mmHg 86%
    14:00 +12°C° 0.6 mm 2 m/s 725 mmHg 84%
    15:00 +12°C° 0.1 mm 2 m/s 725 mmHg 83%
    16:00 +13°C° 0.1 mm 2 m/s 725 mmHg 81%
    17:00 +13°C° 0.1 mm 2 m/s 725 mmHg 80%
    18:00 +11°C° 0 mm 1 m/s 725 mmHg 84%
    19:00 +10°C° 0 mm 1 m/s 725 mmHg 88%
    20:00 +8°C° 0 mm 0 m/s 725 mmHg 92%
    21:00 +8°C° 0 mm 0 m/s 725 mmHg 93%
    22:00 +7°C° 0 mm 0 m/s 725 mmHg 93%
    23:00 +7°C° 0 mm 0 m/s 725 mmHg 94%

    30 Aprilie, Marţi

    Timp Temperatura Precipitaţii Vânt Presiune Umiditate
    00:00 +7°C° 0 mm 0 m/s 724 mmHg 94%
    01:00 +6°C° 0 mm 0 m/s 724 mmHg 94%
    02:00 +7°C° 0 mm 1 m/s 724 mmHg 94%
    03:00 +7°C° 0 mm 1 m/s 724 mmHg 94%
    04:00 +6°C° 0 mm 1 m/s 724 mmHg 94%
    05:00 +6°C° 0 mm 1 m/s 724 mmHg 93%
    06:00 +7°C° 0 mm 0 m/s 724 mmHg 89%
    07:00 +9°C° 0 mm 0 m/s 724 mmHg 85%
    08:00 +10°C° 0 mm 0 m/s 724 mmHg 81%
    09:00 +11°C° 0.1 mm 0 m/s 724 mmHg 78%
    10:00 +13°C° 0.1 mm 1 m/s 724 mmHg 75%
    11:00 +14°C° 0.1 mm 1 m/s 724 mmHg 72%
    12:00 +15°C° 0.5 mm 2 m/s 724 mmHg 71%
    13:00 +15°C° 0.5 mm 2 m/s 723 mmHg 70%
    14:00 +16°C° 0.5 mm 2 m/s 723 mmHg 70%
    15:00 +16°C° 0.6 mm 3 m/s 723 mmHg 70%
    16:00 +16°C° 0.6 mm 3 m/s 724 mmHg 70%
    17:00 +14°C° 0.6 mm 3 m/s 724 mmHg 70%
    18:00 +13°C° 0.2 mm 3 m/s 724 mmHg 74%
    19:00 +12°C° 0.2 mm 2 m/s 724 mmHg 77%
    20:00 +10°C° 0.2 mm 2 m/s 724 mmHg 81%
    21:00 +9°C° 0 mm 2 m/s 725 mmHg 81%
    22:00 +9°C° 0 mm 2 m/s 725 mmHg 82%
    23:00 +9°C° 0 mm 1 m/s 725 mmHg 82%
    Arată mai mult